This is the latest recevied weather packets stored in our database for station/object OE6ATD-13. If no packets are shown the sender has not sent any weather packets the latest 10 day(s).
| Time | Temp. | Humidity | Pressure | Rain* | Wind** | Luminosity | Snow |
|---|---|---|---|---|---|---|---|
| 1788334819 | 20.56° C | 80% | 1022.1 hPa | 0 mm | - | 474 W/m² | - |
| 1788334216 | 20.56° C | 78% | 1022.1 hPa | 0 mm | - | 373 W/m² | - |
| 1788333626 | 21.11° C | 82% | 1022 hPa | 0 mm | - | 418 W/m² | - |
| 1788333023 | 20.56° C | 89% | 1022 hPa | 0 mm | - | 384 W/m² | - |
| 1788332418 | 20.56° C | 98% | 1021.9 hPa | 0 mm | - | 323 W/m² | - |
| 1788331829 | 19.44° C | 99% | 1021.8 hPa | 0 mm | - | 325 W/m² | - |
| 1788331225 | 18.33° C | 99% | 1021.7 hPa | 0 mm | - | 250 W/m² | - |
| 1788330621 | 17.22° C | 99% | 1021.8 hPa | 0 mm | - | 212 W/m² | - |
| 1788330017 | 16.67° C | 99% | 1021.8 hPa | 0 mm | - | 131 W/m² | - |
| 1788329428 | 16.11° C | 99% | 1021.8 hPa | 0 mm | - | 102 W/m² | - |
| 1788328823 | 16.11° C | 99% | 1021.9 hPa | 0 mm | - | 119 W/m² | - |
| 1788328219 | 15.56° C | 99% | 1021.9 hPa | 0 mm | - | 73 W/m² | - |
| 1788327630 | 15.56° C | 99% | 1021.9 hPa | 0 mm | - | 63 W/m² | - |
| 1788327026 | 15.56° C | 99% | 1021.8 hPa | 0 mm | - | 65 W/m² | - |
| 1788326422 | 15.56° C | 99% | 1021.8 hPa | 0 mm | - | 51 W/m² | - |
| 1788325817 | 15.56° C | 99% | 1021.8 hPa | 0 mm | - | 43 W/m² | - |
| 1788325228 | 15.56° C | 99% | 1021.7 hPa | 0 mm | - | 42 W/m² | - |
| 1788324624 | 15.56° C | 99% | 1021.7 hPa | 0 mm | - | 21 W/m² | - |
| 1788324020 | 15° C | 99% | 1021.6 hPa | 0 mm | - | 10 W/m² | - |
| 1788323416 | 15° C | 99% | 1021.8 hPa | 0 mm | - | 3 W/m² | - |
| 1788322827 | 15° C | 99% | 1021.8 hPa | 0 mm | - | 0 W/m² | - |
| 1788322222 | 15° C | 99% | 1021.7 hPa | 0 mm | - | 0 W/m² | - |
| 1788321618 | 15° C | 99% | 1021.7 hPa | 0 mm | - | 0 W/m² | - |
| 1788321030 | 15° C | 99% | 1021.6 hPa | 0 mm | - | 0 W/m² | - |
| 1788320425 | 15.56° C | 99% | 1021.6 hPa | 0 mm | - | 0 W/m² | - |
* Rain latest hour (hover to see other rain measurements)
** Current wind speed in m/s (hover to see current wind gust speed)